Regional Weather Roundup
Issued by NWS

Home | Current Version | Previous Version | Graphics & Text | Print | Product List | Glossary On
Versions: 1 2 3 4 5 6 7 8 9 10 11 12 13 14 15 16 17 18 19 20 21 22 23 24 25 26 27 28 29 30 31 32 33 34 35 36 37 38 39 40 41 42 43 44 45 46 47 48 49 50
507
ASUS45 KTFX 072210
RWRMT
MONTANA REGIONAL WEATHER ROUNDUP
NATIONAL WEATHER SERVICE GREAT FALLS MT
300 PM MST WED DEC 07 2016

NOTE: "FAIR" INDICATES FEW OR NO CLOUDS BELOW 12000 FEET WITH NO
SIGNIFICANT WEATHER AND/OR OBSTRUCTIONS TO VISIBILITY.

MTZ001>007-043-072300-
WEST OF THE DIVIDE

CITY           SKY/WX    TMP DP  RH WIND       PRES   REMARKS
KALISPELL      SUNNY     11  -1  58 N8        30.46S WCI  -1
MISSOULA       CLOUDY    16   3  56 E10       30.43S WCI   4
BUTTE          CLOUDY     6  -2  69 CALM      30.24S
MULLAN PASS    CLOUDY     5   2  87 CALM      30.16S
ANACONDA         N/A      9  -4  56 CALM      30.30R
DEER LODGE       N/A      9  -2  61 CALM      30.35S
EUREKA           N/A      7   1  78 SE3       30.51S
HAMILTON         N/A     16   5  62 NW5       30.36S
LIBBY            N/A     18   3  53 CALM      30.46S
RONAN            N/A     15   8  73 CALM      30.42S
$$

MTZ008-052>055-072300-
SOUTHWEST MONTANA

CITY           SKY/WX    TMP DP  RH WIND       PRES   REMARKS
BOZEMAN        CLOUDY     8  -2  63 VRB3      30.37R
DILLON         SUNNY     10  -1  61 E6        30.25R WCI   0
W YELLOWSTONE  SUNNY      5  -6  61 NE3       30.16R
ENNIS          CLOUDY     7  -2  66 NE3       30.31R
THREE FORKS      N/A      8   8 100 NW2       30.33S
TWIN BRIDGES     N/A     12  -6  44 NW12      30.24R WCI  -2
$$

MTZ009-010-012-014-046-048-049-054-072300-
EAST SLOPES AND CENTRAL MONTANA

CITY           SKY/WX    TMP DP  RH WIND       PRES   REMARKS
CUT BANK       SUNNY     -1 -10  65 NW6       30.47R WCI -13
GREAT FALLS    CLOUDY     2  -7  66 W3        30.48S
MALMSTROM AFB  FLURRIES   2  -4  74 W6        30.51S WCI  -9
HELENA         CLOUDY     7  -6  55 CALM      30.44R
AUGUSTA        CLOUDY     0  -8  69 N2        30.40R
BOWMANS CRNR   CLOUDY    -2  -9  72 NE3       30.39S
CHOTEAU          N/A      3  -8  60 MISG      30.47S
CONRAD           N/A      1  -6  72 W7        30.46R WCI -12
FAIRFIELD      FLURRIES   1  -7  68 W3        30.46R
POWER          CLOUDY     1  -6  71 W7        30.46S WCI -12
ULM            CLOUDY     1  -7  69 E26       30.50R WCI -24
$$

MTZ011-013-016-021-045-047-050-051-072300-
NORTH CENTRAL MONTANA

CITY           SKY/WX    TMP DP  RH WIND       PRES   REMARKS
HAVRE          CLEAR      5  -6  60 NW12      30.59R WCI -11
LEWISTOWN      MOSUNNY    1  -7  68 W8        30.43R WCI -13
N BAR RANCH    CLOUDY     3  -9  55 NW17      30.38R WCI -17
CHINOOK          N/A      3  -8  60 W13       30.60R WCI -14
GEYSER           N/A     -1  -8  71 W16G23    30.42R WCI -21
GRASS RANGE      N/A      3  -6  67 W15G22    30.41R WCI -16
JUDITH GAP     PTSUNNY   -3  -7  81 N17G23    30.35R WCI -24
ROY            FLURRIES   3  -5  69 MISG      30.45R
STANFORD         N/A     -2  -8  74 NW8       30.39R WCI -17
WINIFRED       FLURRIES   1  -5  77 MISG      30.46R
$$

MTZ017>020-022>027-061-062-072300-
NORTHEAST MONTANA

CITY           SKY/WX    TMP DP  RH WIND       PRES   REMARKS
GLASGOW        CLOUDY     3  -6  66 NW24G31   30.52R WCI -20
JORDAN           N/A      6  -4  63 NW20      30.50R WCI -14
SIDNEY         CLOUDY     3  -6  66 NW21G29   30.49R WCI -18
WOLF POINT     CLOUDY     5  -5  63 W16       30.54R WCI -14
PLENTYWOOD       N/A      0  -8  71 NW21G26   30.43R WCI -23
POPLAR           N/A      3  -8  60 W16       30.52R WCI -16
SCOBEY           N/A     -1 -13  56 W13       30.41R WCI -19
$$

MTZ028>42-056>058-072300-
SOUTHCENTRAL AND SOUTHEAST MONTANA

CITY           SKY/WX    TMP DP  RH WIND       PRES   REMARKS
BILLINGS       MOSUNNY   12  -3  51 NE5       30.43R
LIVINGSTON     SUNNY      9  -3  58 NW9       30.32R WCI  -4
MILES CITY     PTCLDY     9  -6  50 NW17      30.50R WCI  -9
BIG TIMBER     MOSUNNY    9   0  66 E3        30.37R
EKALAKA          N/A      1  -9  63 W17       30.30R WCI -19
FORSYTH          N/A     10  -6  48 W12       30.50R WCI  -4
LAUREL           N/A     14  -7  39 CALM      30.36R
ROUNDUP          N/A     12  -7  42 SW2       30.32R
$$

REGIONAL REPORTS...DAKOTAS

CITY           SKY/WX    TMP DP  RH WIND       PRES   REMARKS
WILLISTON      LGT SNOW   2  -6  69 NW14      30.47R WCI -16
MINOT          LGT SNOW   6   1  80 W29G45    30.29R WCI -17
DICKINSON      MOCLDY     0  -7  72 NW28G35   30.34R HAZE    WCI -25
BEACH          LGT RAIN   1  -2  85 NW23G32   30.44R WCI -21
CROSBY         LGT SNOW   1   0  92 NW25G32   30.43R WCI -22
TIOGA          LGT SNOW   1   0  92 NW25G36   30.38R WCI -22
WATFORD CITY   CLOUDY     1  -4  78 NW16G26   30.45R WCI -18
BISMARCK       MIX PCPN   4  -2  76 W22G31    30.34R WCI -18
GRAND FORKS    LGT SNOW  20  14  77 NW28G35   30.04R VSB 3/4 WCI   2
FARGO          LGT SNOW  16  10  77 W26G33    30.09R WCI  -3
BUFFALO SD       N/A      6  -4  63 NW30G37   30.30R WCI -18
RAPID CITY     CLEAR     12  -4  48 N23       30.34R WCI  -7
$$

REGIONAL REPORTS...WYOMING/IDAHO/WASHINGTON

CITY           SKY/WX    TMP DP  RH WIND       PRES   REMARKS
GILLETTE       CLOUDY     3  -4  72 W13       30.34R WCI -14
SHERIDAN       SUNNY      5  -5  63 W9        30.40R WCI  -9
BUFFALO WY     MOSUNNY    3  -7  63 CALM      30.31R
CODY           SUNNY      8  -3  61 S3        30.31R
YELLOWSTONE LA   N/A      7  -4  60 W7        30.08R WCI  -5
IDAHO FALLS    PTSUNNY   19   4  51 N6        30.29R WCI  11
SALMON         CLOUDY    19   7  58 CALM      30.29S
BOISE          SUNNY     23  17  78 S9        30.36S WCI  13
SPOKANE        PTSUNNY   26  13  57 E5        30.40R
$$

REGIONAL REPORTS...ALBERTA

CITY           SKY/WX    TMP DP  RH WIND       PRES   REMARKS
EDMONTON       CLOUDY    -4 -13  65 N8        30.65R WCI -19
CALGARY        PTCLDY    -2 -13  60 N8        30.49R WCI -17
LETHBRIDGE     CLEAR      0  -9  65 NW8       30.56S WCI -15
MEDICINE HAT   PTCLDY     1  -9  60 W10       30.61R WCI -14
WATERTON GATE    N/A     -2 -11  65 E3          N/A
CARDSTON         N/A      1 -11  55 W1          N/A
MILK RIVER       N/A      0  -9  65 NW10        N/A  WCI -17
$$

REGIONAL REPORTS...SASKATCHEWAN

CITY           SKY/WX    TMP DP  RH WIND       PRES   REMARKS
SWIFT CURRENT  MOCLDY    -4  -9  77 W22       30.47R HAZE    WCI -28
REGINA         CLOUDY     3  -2  78 NW22G29   30.45R WCI -19
SASKATOON      FLURRIES   3  -4  72 NW15      30.54R WCI -15
CYPRESS HILLS    N/A     -9 -15  77 NW10G17     N/A  WCI -28
VAL MARIE        N/A     -2 -11  65 NW14        N/A  WCI -21
ROCKGLEN         N/A     -6  -9  84 NW17G25     N/A  WCI -28
ASSINIBOIA       N/A     -2  -9  71 N9          N/A  WCI -18
$$




USA.gov is the U.S. government's official web portal to all federal, state and local government web resources and services.